sat.trackr.live / text

‹ back to catalog

HULIANWANG DIGUI-60

NORAD 65166 · 2025-174C

PAYLOAD ACTIVE UNKNOWN

§ Identity

Operator
Country
PRC
Launch date
2025-08-13
Launch site
WSC
Launch vehicle
Mass (kg)
RCS (m²)

External: N2YO · Heavens-Above · Gunter

§ Orbital elements

Epoch: 2026-05-25T03:55:41.273760Z

Period
108.73 min
Inclination
86.4951°
Eccentricity
0.0001879
Mean motion
13.24403937 rev/d
Perigee alt
1,166.5 km
Apogee alt
1,169.4 km
Semi-major
7,546.1 km
B*
3.6735e-5
RAAN
259.7724°
Arg perigee
94.4756°
Mean anomaly
265.6592°
Rev number
3,774

§ Raw data

HULIANWANG DIGUI-601 65166U 25174C   26145.16367215  .00000030  00000+0  36735-4 0  99922 65166  86.4951 259.7724 0001879  94.4756 265.6592 13.24403937 37747

JSON: /api/v1/satellites/65166 · /tle

For live sub-satellite position, see the globe view (requires WebGL).

§ Visibility from observer

Set your observer location to see the next 7 days of passes ≥ 10°. The values pass through the URL so the page stays shareable.

No JS? Fill the form by hand. The geolocation button needs JavaScript.